Miscellaneous Local Product
Issued by NWS North Platte, NE

Home | Current Version | Previous Version | Text Only | Print | Product List | Glossary On
Versions: 1 2 3 4 5 6 7 8 9 10 11 12 13 14 15 16 17 18 19 20 21 22 23 24 25 26 27 28 29 30 31 32 33 34 35 36 37 38 39 40 41 42 43 44 45 46 47 48 49 50
000
AXUS43 KLBF 311910
MISLBF


WESTERN AND NORTH CENTRAL NEBRASKA HOURLY WEATHER ROUNDUP
NATIONAL WEATHER SERVICE NORTH PLATTE NE
100 PM CST SAT JAN 31 2015

***STATIONS NOT REPORTING VARIABLES SUCH AS SKY/WEATHER OR
PRESSURE ARE PROVIDED BY THE NEBRASKA DEPARTMENT OF
ROADS...RAWS...AND APRS NETWORKS...AND ARE NOT UNDER
NATIONAL WEATHER SERVICE QUALITY CONTROL***

...OBSERVATIONS IN AND NEAR THE EASTERN PANHANDLE OF NEBRASKA...

CITY           SKY/WX    TMP DP  RH WIND       PRES   REMARKS
PINE RIDGE     CLOUDY    31  25  78 E12       29.95F WCI  22
CHADRON        CLOUDY    33  26  75 NE10      29.94F WCI  25
ALLIANCE       SNOW      31  29  92 N9        29.88F VSB 1/4 WCI  23
SIDNEY         LGT SNOW  33  30  88 N8        29.86F VSB 1   WCI  26
WHITECLAY        N/A     30  23  74 NE5         N/A  WCI  25
CRESCENT LAKE    N/A     33  31  93 NE5         N/A  WCI  28
LISCO            N/A     34  32  93 W5          N/A  WCI  30
LEWELLEN         N/A     35  33  92 CALM        N/A
$$

...OBSERVATIONS IN NORTH CENTRAL NEBRASKA...

CITY           SKY/WX    TMP DP  RH WIND       PRES   REMARKS
VALENTINE      FOG       25  23  92 NE16      30.00F VSB 1/4 WCI  12
THEDFORD       DRIZZLE   35  35  99 NE7       29.92F WCI  29
AINSWORTH      FOG       26  26  98 NE13      29.98F VSB 1/4 WCI  15
O`NEILL        CLOUDY    30  29  95 N9        30.00F FOG     WCI  22
ORD            CLOUDY    35  31  85 SE6       29.95F WCI  30
BROKEN BOW     LGT SNOW  35  32  88 E7        29.92F FOG     WCI  29
BROWNLEE         N/A     29  28  97 N15         N/A  WCI  17
VALENTINE NWR    N/A     28  27  95 NE10        N/A  WCI  19
SPRINGVIEW       N/A     26  24  91 E6G13       N/A  WCI  19
BREWSTER         N/A     35  35  99 E3          N/A
ROSE             N/A     32  32 100 N9          N/A  WCI  24
NEWPORT          N/A     30  30 100 NE13        N/A  WCI  20
SARGENT          N/A     34  32  93 SE3         N/A
COMSTOCK         N/A     37  36  96 S5          N/A  WCI  33
CHAMBERS         N/A     32  29  90 NE6         N/A  WCI  26
EWING            N/A     36  34  92 S3          N/A
$$

...OBSERVATIONS IN SOUTHWEST NEBRASKA AND FAR NORTHEAST COLORADO...

CITY           SKY/WX    TMP DP  RH WIND       PRES   REMARKS
WRAY           CLOUDY    36  33  89 N6        29.87F WCI  32
IMPERIAL       CLOUDY    33  32  96 CALM      29.87F FOG
OGALLALA       CLOUDY    34  34  99 NE3       29.88F FOG
NORTH PLATTE   CLOUDY    35  31  85 E7        29.89F WCI  29
MCCOOK         FOG       36  34  92 E6        29.88F VSB 3/4 WCI  31
LEXINGTON      DRIZZLE   34  33  96 SE6       29.92F WCI  29
BRADY            N/A     32  30  92 CALM        N/A
GOTHENBURG       N/A     34  32  93 SE5         N/A  WCI  30
CALLAWAY         N/A     34  32  93 E3          N/A
$$

...NORTH PLATTE AREA...

CITY           SKY/WX    TMP DP  RH WIND       PRES   REMARKS
AIRPORT        CLOUDY    35  31  85 E7        29.89F WCI  29
DOWNTOWN         N/A     34  31  90 E3          N/A
$$

...SOME WEATHER OBSERVATIONS FROM AROUND THE REGION...

CITY           SKY/WX    TMP DP  RH WIND       PRES   REMARKS
DENVER         CLOUDY    37  27  67 VRB5      29.85F WCI  33
LARAMIE        CLOUDY    30  25  81 W6        29.85F WCI  24
CHEYENNE       FLURRIES  32  26  78 NW6       29.84F WCI  26
SCOTTSBLUFF    SNOW      32  31  96 W8        29.89F VSB 1/4 WCI  25
RAPID CITY     FOG       26  25  96 E10       29.99F VSB 1/4 WCI  16
PIERRE         CLOUDY    21  19  92 E20       30.11F WCI   6
WINNER         FRZ RAIN  26  24  92 NE14      30.05F VSB<1/4 WCI  14
SIOUX FALLS    CLOUDY    26  24  92 NE16      30.10F WCI  14
OMAHA          LGT SNOW  34  33  96 SE10      30.09F FOG     WCI  26
GRAND ISLAND   LGT SNOW  33  31  92 S12       29.99F FOG     WCI  24
KANSAS CITY    LGT RAIN  39  38  96 S12       30.15F WCI  32
WICHITA        LGT RAIN  40  38  93 S14       30.04F FOG     WCI  32
HAYS           CLOUDY    37  28  70 S12       29.93F WCI  30
LIBERAL        CLOUDY    39  34  81 S18       29.91F WCI  30
GOODLAND       CLOUDY    39  34  82 N6        29.84F WCI  35
$$



USA.gov is the U.S. government's official web portal to all federal, state and local government web resources and services.